This demonstration page uses our WeatherBlox Daily Observations layout. Learn more.

Hourly Observations for April 27, 2019

Temp ( °F °C ) Dew Point ( °F °C ) Humidity (%) Winds ( mph kmh ) Pressure ( in mb ) Visibility ( mi km ) Precip ( " mm )
12:15 am 00:15 Partly Cloudy 62 16.8 43 6.3 50 50 SE 17 28 29.61 1003 10 16.0934 0 0
12:35 am 00:35 Partly Cloudy with Nearby Thunderstorms 60 15.8 44 6.5 54 54 ESE 12 19 29.62 1003 10 16.0934 0 0
12:55 am 00:55 Partly Cloudy 60 15.5 44 6.7 56 56 SE 13 20 29.61 1003 10 16.0934 0 0
1:15 am 01:15 Partly Cloudy 59 15.1 44 6.9 58 58 SE 15 24 29.58 1002 10 16.0934 0 0
1:35 am 01:35 Partly Cloudy 59 15 45 7.2 60 60 SE 12 19 29.57 1001 10 16.0934 0 0
1:55 am 01:55 Clear 58 14.6 45 7.2 61 61 SE 9 15 29.57 1001 10 16.0934 0 0
2:15 am 02:15 Clear 56 13.3 45 7.2 67 67 SSE 8 13 29.57 1001 10 16.0934 0 0
2:35 am 02:35 Partly Cloudy 55 12.7 45 7 69 69 ESE 9 15 29.57 1001 10 16.0934 0 0
2:55 am 02:55 Clear 53 11.6 44 6.9 73 73 SE 5 7 29.58 1002 10 16.0934 0 0
3:15 am 03:15 Clear 51 10.8 44 6.9 77 77 Calm 29.6 1002 10 16.0934 0 0
3:35 am 03:35 Clear 51 10.3 44 6.4 77 77 Calm 29.59 1002 10 16.0934 0 0
3:55 am 03:55 Clear 49 9.2 43 6 81 81 Calm 29.61 1003 10 16.0934 0 0
4:15 am 04:15 Clear 49 9.3 44 6.4 82 82 W 6 9 29.61 1003 10 16.0934 0 0
4:35 am 04:35 Clear 51 10.6 45 7 79 79 W 9 15 29.6 1002 10 16.0934 0 0
4:55 am 04:55 Clear 53 11.7 45 7.2 74 74 W 13 20 29.59 1002 10 16.0934 0 0
5:15 am 05:15 Clear 55 12.7 46 7.6 71 71 W 18 30 29.6 1002 10 16.0934 0 0
5:35 am 05:35 Clear 56 13.5 47 8.1 70 70 WNW 18 30 29.6 1002 10 16.0934 0 0
5:55 am 05:55 Clear 56 13.6 47 8.1 70 70 NW 25 41 29.61 1003 10 16.0934 0 0
6:15 am 06:15 Clear 54 12.1 43 5.9 66 66 NW 28 44 29.64 1004 10 16.0934 0 0
6:35 am 06:35 Clear 51 10.8 41 5 68 68 NW 23 37 29.69 1005 10 16.0934 0 0
6:55 am 06:55 Sunny 50 10 40 4.4 68 68 NW 28 44 29.7 1006 10 16.0934 0 0
7:15 am 07:15 Sunny 49 9.2 39 3.7 69 69 NW 29 46 29.74 1007 10 16.0934 0 0
7:35 am 07:35 Sunny 48 9 38 3.5 69 69 NW 28 44 29.76 1008 10 16.0934 0 0
7:55 am 07:55 Sunny 48 8.7 38 3.2 69 69 NW 26 43 29.77 1008 7 11.26538 0 0
8:15 am 08:15 Sunny 47 8.3 38 3.1 70 70 NW 23 37 29.8 1009 10 16.0934 0 0
8:35 am 08:35 Hazy 47 8.5 37 2.7 67 67 NW 29 46 29.82 1010 5 8.0467 0 0
8:55 am 08:55 Partly Cloudy 47 8.1 37 2.6 69 69 NNW 31 50 29.84 1010 10 16.0934 0 0
9:15 am 09:15 Mostly Cloudy 47 8.4 37 2.9 69 69 NNW 28 44 29.86 1011 10 16.0934 0 0
9:35 am 09:35 Cloudy 46 7.7 37 2.7 71 71 N 31 50 29.88 1012 10 16.0934 0 0
9:55 am 09:55 Cloudy 46 7.8 37 2.8 71 71 NNW 29 46 29.89 1012 10 16.0934 0 0
10:15 am 10:15 Cloudy 47 8.3 37 2.7 68 68 NNW 29 46 29.9 1012 10 16.0934 0 0
10:35 am 10:35 Cloudy 45 7.3 36 2.2 70 70 NNW 29 46 29.92 1013 10 16.0934 0 0
10:55 am 10:55 Cloudy 46 7.8 36 2 67 67 NNW 29 46 29.93 1014 10 16.0934 0 0
11:15 am 11:15 Cloudy 45 7 36 2 71 71 NNW 26 43 29.96 1015 10 16.0934 0 0
11:35 am 11:35 Cloudy 46 7.8 36 2.1 68 68 N 26 43 29.96 1015 10 16.0934 0 0
11:55 am 11:55 Mostly Cloudy 47 8.5 36 2.2 65 65 N 29 46 29.97 1015 10 16.0934 0 0
12:15 pm 12:15 Mostly Cloudy 47 8.3 36 2.2 66 66 N 28 44 29.98 1015 10 16.0934 0 0
12:35 pm 12:35 Cloudy 47 8.4 37 2.5 67 67 N 20 31 29.99 1015 10 16.0934 0 0
12:55 pm 12:55 Cloudy 47 8.4 36 2.3 66 66 NNW 22 35 30 1016 10 16.0934 0 0
1:15 pm 13:15 Cloudy 48 9 37 2.6 65 65 N 23 37 29.99 1016 10 16.0934 0 0
1:35 pm 13:35 Mostly Cloudy 48 9 37 2.5 64 64 N 18 30 29.99 1016 10 16.0934 0 0
1:55 pm 13:55 Mostly Cloudy 50 9.8 37 3 63 63 N 20 31 29.97 1015 10 16.0934 0 0
2:15 pm 14:15 Mostly Cloudy 50 10.2 37 2.8 60 60 N 26 43 29.97 1015 10 16.0934 0 0
2:35 pm 14:35 Mostly Cloudy 51 10.3 38 3.2 62 62 N 22 35 29.97 1015 10 16.0934 0 0
2:55 pm 14:55 Mostly Cloudy 49 9.7 37 3 63 63 N 21 33 29.99 1015 10 16.0934 0 0
3:15 pm 15:15 Mostly Cloudy 50 10 38 3.2 63 63 N 18 30 29.98 1015 10 16.0934 0 0
3:35 pm 15:35 Mostly Cloudy 49 9.6 37 2.8 63 63 N 14 22 29.99 1015 10 16.0934 0 0
3:55 pm 15:55 Mostly Cloudy 49 9.6 37 2.8 63 63 NNE 18 30 29.99 1015 10 16.0934 0 0
4:15 pm 16:15 Mostly Cloudy 48 9.1 36 2.4 63 63 N 15 24 29.99 1016 10 16.0934 0 0
4:35 pm 16:35 Cloudy 51 10.6 38 3.6 62 62 N 17 28 29.98 1015 10 16.0934 0 0
4:55 pm 16:55 Mostly Cloudy 50 10.1 37 2.8 61 61 NNE 17 28 29.98 1015 10 16.0934 0 0
5:15 pm 17:15 Partly Cloudy 50 9.8 37 2.9 62 62 NNE 15 24 29.98 1015 10 16.0934 0 0
5:35 pm 17:35 Partly Cloudy 49 9.4 37 2.7 63 63 NE 18 30 29.98 1015 10 16.0934 0 0
5:55 pm 17:55 Sunny 49 9.4 37 2.5 62 62 NE 20 31 29.97 1015 10 16.0934 0 0
6:15 pm 18:15 Sunny 49 9.4 37 2.6 63 63 NE 16 26 29.97 1015 10 16.0934 0 0
6:35 pm 18:35 Sunny 48 9.1 36 2.4 63 63 NNE 13 20 29.97 1015 10 16.0934 0 0
6:55 pm 18:55 Sunny 48 8.7 37 2.5 65 65 NE 20 31 29.94 1014 10 16.0934 0 0
7:15 pm 19:15 Sunny 47 8.3 37 2.9 69 69 NE 17 28 29.96 1014 10 16.0934 0 0
7:35 pm 19:35 Partly Cloudy 45 7.2 37 2.6 73 73 NE 15 24 30 1016 10 16.0934 0 0
7:50 pm 19:50 Mostly Cloudy 44 6.5 37 2.5 76 76 ENE 14 22 30 1016 10 16.0934 0 0
8:15 pm 20:15 Cloudy 42 5.8 36 2.2 78 78 NE 10 17 30.02 1017 10 16.0934 0 0
8:35 pm 20:35 Cloudy 42 5.5 36 2.1 79 79 ENE 9 15 30.03 1017 10 16.0934 0 0
8:55 pm 20:55 Cloudy 41 5.1 36 2 81 81 ENE 9 15 30.05 1018 10 16.0934 0 0
9:15 pm 21:15 Cloudy 41 5 36 2 81 81 ENE 9 15 30.07 1018 10 16.0934 0 0
9:35 pm 21:35 Cloudy 41 5 35 1.6 79 79 E 8 13 30.08 1019 10 16.0934 0 0
9:55 pm 21:55 Cloudy 41 5 35 1.7 79 79 ENE 9 15 30.1 1019 10 16.0934 0 0
10:15 pm 22:15 Cloudy 41 5 35 1.6 79 79 ENE 9 15 30.09 1019 10 16.0934 0 0
10:35 pm 22:35 Cloudy 41 5.1 35 1.7 79 79 ESE 8 13 30.09 1019 10 16.0934 0 0
10:55 pm 22:55 Cloudy 41 5 35 1.5 78 78 E 9 15 30.09 1019 10 16.0934 0 0
11:15 pm 23:15 Cloudy 41 5.1 35 1.7 79 79 SE 9 15 30.09 1019 10 16.0934 0 0
11:35 pm 23:35 Cloudy 41 5.1 35 1.7 79 79 ESE 9 15 30.09 1019 10 16.0934 0 0
11:55 pm 23:55 Cloudy 41 5 35 1.6 79 79 ESE 13 20 30.09 1019 10 16.0934 0 0

Powered by AerisWeather